#timestamp,LO_Frequency,Hit,Temp,Hum 
1478764815.6,286047595.9,N,0.0,0.0
1478764835.4,286047595.8,N,0.0,0.0
1478764855.3,286047595.9,N,0.0,0.0
1478764875.1,286047595.1,N,0.0,0.0
1478764895.9,286047597.6,N,0.0,0.0
1478764915.7,286047595.9,N,0.0,0.0
1478764935.5,286047594.2,N,0.0,0.0
1478764955.4,286047596.4,N,0.0,0.0
1478764975.2,286047594.4,N,0.0,0.0
1478764995.0,286047594.1,N,0.0,0.0
1478764995.9,286047594.1,N,0.0,0.0
1478765015.8,286047592.3,N,0.0,0.0
1478765035.6,286047591.8,N,0.0,0.0
1478765055.4,286047592.6,N,0.0,0.0
1478765075.3,286047591.9,N,0.0,0.0
1478765095.1,286047592.0,N,0.0,0.0
1478765115.9,286047591.7,N,0.0,0.0
1478765135.7,286047592.9,N,0.0,0.0
1478765155.5,286047592.2,N,0.0,0.0
1478765175.4,286047591.7,N,0.0,0.0
1478765195.2,286047594.0,N,0.0,0.0
1478765215.0,286047594.0,N,0.0,0.0
1478765215.9,286047594.0,N,0.0,0.0
1478765235.8,286047599.2,N,0.0,0.0
1478765255.6,286047595.3,N,0.0,0.0
1478765275.5,286047596.4,N,0.0,0.0
1478765295.3,286047593.9,N,0.0,0.0
1478765315.1,286047594.1,N,0.0,0.0
1478765335.9,286047594.5,N,0.0,0.0
1478765355.7,286047594.8,N,0.0,0.0
1478765375.5,286047592.9,N,0.0,0.0
1478765395.4,286047591.7,N,0.0,0.0
1478765415.2,286047592.1,N,0.0,0.0
1478765435.0,286047592.7,N,0.0,0.0
1478765435.9,286047592.7,N,0.0,0.0
1478765455.8,286047592.7,N,0.0,0.0
1478765475.6,286047594.5,N,0.0,0.0
1478765495.5,286047592.4,N,0.0,0.0
1478765515.3,286047590.2,N,0.0,0.0
1478765535.1,286047592.3,N,0.0,0.0
1478765555.9,286047594.3,N,0.0,0.0
1478765575.7,286047595.8,N,0.0,0.0
1478765595.5,286047596.2,N,0.0,0.0
1478765615.4,286047595.4,N,0.0,0.0
1478765635.2,286047596.0,N,0.0,0.0
1478765655.0,286047593.9,N,0.0,0.0
1478765656.0,286047593.9,N,0.0,0.0
1478765675.8,286047594.5,N,0.0,0.0
1478765695.6,286047594.8,N,0.0,0.0
1478765715.5,286047591.9,N,0.0,0.0
1478765735.3,286047592.3,N,0.0,0.0
1478765755.1,286047592.2,N,0.0,0.0
1478765775.9,286047593.0,N,0.0,0.0
1478765795.7,286047593.9,N,0.0,0.0
1478765815.5,286047593.4,N,0.0,0.0
1478765835.4,286047594.1,N,0.0,0.0
1478765855.2,286047594.5,N,0.0,0.0
1478765875.1,286047594.3,N,0.0,0.0
1478765876.0,286047594.3,N,0.0,0.0
1478765895.8,286047590.3,N,0.0,0.0
1478765915.6,286047591.9,N,0.0,0.0
1478765935.5,286047591.9,N,0.0,0.0
1478765955.3,286047593.2,N,0.0,0.0
1478765975.1,286047592.6,N,0.0,0.0
1478765995.9,286047592.1,N,0.0,0.0
1478766015.7,286047591.8,N,0.0,0.0
1478766035.5,286047594.5,N,0.0,0.0
1478766055.4,286047592.2,N,0.0,0.0
1478766075.2,286047592.2,N,0.0,0.0
1478766095.1,286047591.7,N,0.0,0.0
1478766096.0,286047591.7,N,0.0,0.0
1478766115.8,286047592.4,N,0.0,0.0
1478766135.6,286047590.5,N,0.0,0.0
1478766155.5,286047593.2,N,0.0,0.0
1478766175.3,286047593.1,N,0.0,0.0
1478766195.1,286047590.1,N,0.0,0.0
1478766215.9,286047592.8,N,0.0,0.0
1478766235.7,286047591.0,N,0.0,0.0
1478766255.5,286047591.5,N,0.0,0.0
1478766275.4,286047590.9,N,0.0,0.0
1478766295.2,286047591.0,N,0.0,0.0
1478766315.0,286047588.6,N,0.0,0.0
1478766316.0,286047588.6,N,0.0,0.0
1478766335.8,286047589.0,N,0.0,0.0
1478766355.6,286047588.5,N,0.0,0.0
1478766375.5,286047588.6,N,0.0,0.0
1478766395.3,286047588.5,N,0.0,0.0
1478766415.1,286047588.8,N,0.0,0.0
1478766435.9,286047590.9,N,0.0,0.0
1478766455.7,286047588.7,N,0.0,0.0
1478766475.5,286047591.4,N,0.0,0.0
1478766495.4,286047591.5,N,0.0,0.0
1478766515.2,286047591.5,N,0.0,0.0
1478766535.1,286047591.2,N,0.0,0.0
1478766536.0,286047591.2,N,0.0,0.0
1478766555.8,286047591.1,N,0.0,0.0
1478766575.6,286047588.8,N,0.0,0.0
1478766595.5,286047588.5,N,0.0,0.0
1478766615.3,286047591.0,N,0.0,0.0
1478766635.1,286047591.2,N,0.0,0.0
1478766655.9,286047589.2,N,0.0,0.0
1478766675.7,286047590.7,N,0.0,0.0
1478766695.5,286047589.1,N,0.0,0.0
1478766715.4,286047582.5,N,0.0,0.0
1478766735.2,286047583.1,N,0.0,0.0
1478766755.1,286047580.5,N,0.0,0.0
1478766756.0,286047580.5,N,0.0,0.0
1478766775.8,286047585.4,N,0.0,0.0
1478766795.6,286047587.6,N,0.0,0.0
1478766815.5,286047587.8,N,0.0,0.0
1478766835.3,286047587.3,N,0.0,0.0
1478766855.1,286047587.1,N,0.0,0.0
1478766875.9,286047587.8,N,0.0,0.0
1478766895.7,286047591.3,N,0.0,0.0
1478766915.5,286047591.5,N,0.0,0.0
1478766935.4,286047592.6,N,0.0,0.0
1478766955.2,286047591.9,N,0.0,0.0
1478766975.1,286047593.7,N,0.0,0.0
1478766976.0,286047593.7,N,0.0,0.0
1478766995.8,286047593.0,N,0.0,0.0
1478767015.6,286047588.7,N,0.0,0.0
1478767035.5,286047589.7,N,0.0,0.0
1478767055.3,286047589.4,N,0.0,0.0
1478767075.1,286047589.2,N,0.0,0.0
1478767095.9,286047587.5,N,0.0,0.0
1478767115.7,286047587.9,N,0.0,0.0
1478767135.6,286047587.5,N,0.0,0.0
1478767155.4,286047589.4,N,0.0,0.0
1478767175.2,286047586.1,N,0.0,0.0
1478767195.1,286047588.3,N,0.0,0.0
1478767196.0,286047588.3,N,0.0,0.0
1478767215.8,286047588.2,N,0.0,0.0
1478767235.6,286047587.7,N,0.0,0.0
1478767255.5,286047589.1,N,0.0,0.0
1478767275.3,286047588.9,N,0.0,0.0
1478767295.1,286047588.6,N,0.0,0.0
1478767315.9,286047593.2,N,0.0,0.0
1478767335.7,286047593.1,Y,0.0,0.0
1478767355.6,286046995.4,N,0.0,0.0
1478767375.4,286046996.7,N,0.0,0.0
1478767395.2,286046988.1,N,0.0,0.0
1478767415.1,286047006.2,N,0.0,0.0
1478767416.0,286047006.2,N,0.0,0.0
1478767435.8,286046992.2,N,0.0,0.0
1478767455.6,286047006.3,N,0.0,0.0
1478767475.5,286046994.0,N,0.0,0.0
1478767495.3,286046991.7,N,0.0,0.0
1478767515.2,286046992.8,N,0.0,0.0
1478767535.9,286046993.0,N,0.0,0.0
1478767555.7,286046993.2,N,0.0,0.0
1478767575.6,286046992.8,N,0.0,0.0
1478767595.4,286046992.1,N,0.0,0.0
1478767615.2,286046994.2,N,0.0,0.0
1478767635.1,286046995.1,N,0.0,0.0
1478767636.0,286046995.1,N,0.0,0.0
1478767655.8,286046997.2,N,0.0,0.0
1478767675.6,286046997.2,N,0.0,0.0
1478767695.5,286046993.4,N,0.0,0.0
1478767715.3,286046994.8,N,0.0,0.0
1478767735.2,286046993.1,N,0.0,0.0
1478767755.9,286046995.7,N,0.0,0.0
1478767775.7,286046996.9,N,0.0,0.0
1478767795.6,286046998.0,N,0.0,0.0
1478767815.4,286046995.6,N,0.0,0.0
1478767835.2,286046996.0,N,0.0,0.0
1478767855.1,286046993.8,N,0.0,0.0
1478767856.0,286046993.8,N,0.0,0.0
1478767875.8,286046992.6,N,0.0,0.0
1478767895.6,286046992.4,N,0.0,0.0
1478767915.5,286046992.0,N,0.0,0.0
1478767935.3,286046992.3,N,0.0,0.0
1478767955.2,286046991.9,N,0.0,0.0
1478767975.9,286046994.7,N,0.0,0.0
1478767995.7,286046993.7,N,0.0,0.0
1478768015.6,286046997.8,N,0.0,0.0
1478768035.4,286046997.3,N,0.0,0.0
1478768055.2,286046999.3,N,0.0,0.0
1478768075.1,286047001.1,N,0.0,0.0
1478768076.0,286047001.1,N,0.0,0.0
1478768095.8,286047000.1,N,0.0,0.0
1478768115.7,286047001.1,N,0.0,0.0
1478768135.5,286046998.7,N,0.0,0.0
1478768155.3,286046997.6,N,0.0,0.0
1478768175.2,286046998.0,N,0.0,0.0
1478768195.9,286046995.1,N,0.0,0.0
1478768215.7,286046993.3,N,0.0,0.0
1478768235.6,286046993.5,N,0.0,0.0
1478768255.4,286046993.9,N,0.0,0.0
1478768275.2,286046993.6,N,0.0,0.0
1478768295.1,286046996.0,N,0.0,0.0
1478768296.0,286046996.0,N,0.0,0.0
1478768315.8,286046995.2,N,0.0,0.0
1478768335.7,286046995.6,N,0.0,0.0
1478768355.5,286046997.6,N,0.0,0.0
1478768375.3,286046999.0,N,0.0,0.0
1478768395.2,286046997.0,N,0.0,0.0
